Regional Weather Roundup
Issued by NWS State College, PA

Home | Current Version | Previous Version | Text Only | Print | Product List | Glossary Off
Versions: 1 2 3 4 5 6 7 8 9 10 11 12 13 14 15 16 17 18 19 20 21 22 23 24 25 26 27 28 29 30 31 32 33 34 35 36 37 38 39 40 41 42 43 44 45 46 47 48 49 50

000
ASUS41 KCTP 201103
RWRCTP
REGIONAL WEATHER ROUNDUP
NATIONAL WEATHER SERVICE STATE COLLEGE PA
600 AM EST SAT JAN 20 2018

Note: "fair" indicates few or no clouds below 12,000 feet with no
significant weather and/or obstructions to visibility.

* = STATION THAT DOES NOT REPORT PRECIPITATION /E.G. RAIN...SNOW...ETC/
    THUNDER OR FOG.

PAZ002>004-007>009-013>016-020>023-029>032-201200-
WESTERN PENNSYLVANIA

CITY           SKY/WX    TMP DP  RH WIND       PRES   REMARKS
ERIE           FAIR      37  23  56 S20G30    29.86R
MEADVILLE      FAIR      32  22  66 SW13      29.88R
FRANKLIN*      FAIR      32  22  66 SW14G21   29.90R
NEW CASTLE     FAIR      34  23  64 VRB7      29.96R
BEAVER COUNTY  NOT AVBL
BUTLER*        FAIR      34  22  61 SW13      29.97R
PITTSBURGH INT MOCLDY    36  22  56 SW12      29.97R
PITTSBURGH     FAIR      35  20  54 SW14G24   29.99R
INDIANA*       CLEAR     34  21  60 W13G20    30.00R
LATROBE        FAIR      36  21  55 S17G24    30.01R
WASHINGTON CO* NOT AVBL
$$

PAZ004>006-010>012-017>019-024>028-033>037-041-042-045-046-049>053-201200-
CENTRAL PENNSYLVANIA

CITY           SKY/WX    TMP DP  RH WIND       PRES   REMARKS
BRADFORD       FAIR      30  21  69 SW12G22   29.83R
DUBOIS         FAIR      31  19  61 SW17G24   29.89S
CLEARFIELD     FAIR      35  21  56 SW20G26   29.91R
JOHNSTOWN      FAIR      35  24  64 SW24G37   29.92R
ALTOONA        FAIR      39  25  57 SW14      29.92S
STATE COLLEGE  CLEAR     37  25  60 SW9G23    29.90R
WILLIAMSPORT   FAIR      36  23  59 W9        29.87S
SELINSGROVE    FAIR      27  22  81 CALM      29.91S
FT INDIANTOWN  FAIR      21  19  91 CALM      29.91S
CAPITAL CITY   FAIR      25  20  81 CALM      29.93S
HARRISBURG     FAIR      22  19  89 CALM      29.92S
YORK           FAIR      42  23  46 SW7       29.93S
$$

PAZ038>040-043-044-047-048-054-055-060>062-067>071-201200-
EASTERN PENNSYLVANIA

CITY           SKY/WX    TMP DP  RH WIND       PRES   REMARKS
SCRANTON       FAIR      37  23  56 SW13      29.84R
MOUNT POCONO   FAIR      33  23  66 W23G32    29.77F
ALLENTOWN      FAIR      28  18  66 SW6       29.89S
QUAKERTOWN*    FAIR      25  19  80 MISG      29.90S
READING        FAIR      24  20  84 CALM      29.91S
LANCASTER      FAIR      30  22  72 CALM      29.93S
COATESVILLE    FAIR      39  23  52 SW8G15    29.93S
POTTSTOWN      FAIR      37  22  54 SW6       29.92F
BLUE BELL      FAIR      36  23  60 SW5       29.93S
DOYLESTOWN     FAIR      31  19  61 S3        29.90S
WILLOW GROVE   NOT AVBL
NORTH PHILA    FAIR      32  21  64 SW3       29.95S
PHILADELPHIA   FAIR      29  20  69 W8        29.95F
$$




USA.gov is the U.S. government's official web portal to all federal, state and local government web resources and services.